period_start,C,m1,H,J0,J1,J2,J3,J4,J5,JA,JB,JC,JD,JJ,JK,JN,#
2015-05-20 00:01:14,0.03,1.78,0.00,22.91,27.14,29.93,4.75,24.27,1010.76,2034.20,2745.96,2840.64,3058.49,349.88,345.71,31.49,0000 0000 0000 0000 000000
2015-05-20 00:06:15,0.08,1.78,0.00,23.01,27.13,29.91,4.81,24.29,1010.76,2034.48,2745.90,2840.57,3058.34,350.45,346.13,31.52,0000 0000 0000 0000 000000
2015-05-20 00:11:17,-0.00,1.78,0.00,23.22,27.14,29.90,4.71,24.36,1010.76,2034.37,2745.36,2840.10,3058.04,349.57,345.11,31.55,0000 0000 0000 0000 000000
2015-05-20 00:16:18,-0.01,1.78,0.00,23.17,27.15,29.92,4.72,24.23,1010.76,2034.16,2745.03,2840.01,3058.00,349.95,345.45,31.58,0000 0000 0000 0000 000000
2015-05-20 00:21:19,0.04,1.78,0.00,23.01,27.15,29.98,4.69,24.35,1010.77,2034.31,2745.00,2840.00,3057.99,349.37,345.13,31.61,0000 0000 0000 0000 000000
2015-05-20 00:26:20,0.02,1.78,0.00,23.05,27.15,29.96,4.75,24.28,1010.76,2034.42,2744.70,2839.99,3057.94,350.18,345.75,31.64,0000 0000 0000 0000 000000
2015-05-20 00:31:22,0.04,1.78,0.00,23.01,27.15,29.99,4.74,24.29,1010.76,2034.41,2744.05,2839.89,3057.47,349.78,345.37,31.67,0000 0000 0000 0000 000000
2015-05-20 00:36:23,0.02,1.78,0.00,22.97,27.15,29.95,4.79,24.25,1010.77,2034.27,2744.00,2839.27,3057.02,349.72,345.38,31.70,0000 0000 0000 0000 000000
2015-05-20 00:41:25,0.01,1.78,0.00,23.06,27.15,29.94,4.79,24.27,1010.77,2034.31,2743.92,2839.02,3057.00,350.17,345.68,31.73,0000 0000 0000 0000 000000
2015-05-20 00:46:26,0.07,1.78,0.00,23.25,27.15,29.91,4.80,24.20,1010.78,2034.45,2743.28,2839.00,3056.98,350.36,345.87,31.76,0000 0000 0000 0000 000000
2015-05-20 00:51:27,-0.02,1.78,0.00,23.16,27.15,29.97,4.75,24.22,1010.78,2034.30,2742.98,2838.98,3056.44,349.92,345.35,31.79,0000 0000 0000 0000 000000
2015-05-20 00:56:29,0.07,1.79,0.00,23.05,27.15,29.98,4.75,24.37,1010.77,2034.34,2742.54,2838.59,3056.06,350.21,346.33,31.81,0000 0000 0000 0000 000000
2015-05-20 01:01:30,0.02,1.79,0.00,23.06,27.15,30.00,4.69,24.42,1010.77,2034.22,2742.01,2838.05,3056.00,349.53,344.99,31.84,0000 0000 0000 0000 000000
2015-05-20 01:06:31,-0.01,1.79,0.00,23.02,27.15,30.00,4.69,24.33,1010.77,2034.35,2742.00,2838.01,3056.00,349.77,345.45,31.87,0000 0000 0000 0000 000000
2015-05-20 01:11:32,0.02,1.79,0.00,23.04,27.15,30.01,4.74,24.32,1010.77,2034.39,2741.97,2838.00,3056.00,350.13,345.70,31.90,0000 0000 0000 0000 000000
2015-05-20 01:16:34,0.04,1.79,0.00,23.19,27.15,29.99,4.81,24.42,1010.77,2034.44,2741.59,2838.00,3055.95,349.65,345.33,31.93,0000 0000 0000 0000 000000
2015-05-20 01:21:35,-0.01,1.79,0.00,23.31,27.17,29.95,4.78,24.39,1010.78,2034.31,2741.07,2837.97,3055.43,350.19,345.55,31.96,0000 0000 0000 0000 000000
2015-05-20 01:26:36,0.12,1.79,0.00,23.14,27.17,29.99,4.73,24.34,1010.79,2034.45,2740.75,2837.25,3055.02,350.05,345.51,31.99,0000 0000 0000 0000 000000
2015-05-20 01:31:38,-0.02,1.79,0.00,23.11,27.17,29.99,4.71,24.30,1010.80,2034.33,2740.09,2837.01,3054.98,349.77,345.36,32.02,0000 0000 0000 0000 000000
2015-05-20 01:36:39,0.04,1.79,0.00,23.11,27.17,30.02,4.64,24.28,1010.82,2034.34,2739.99,2837.00,3054.65,349.50,345.13,32.05,0000 0000 0000 0000 000000
2015-05-20 01:41:40,0.08,1.79,0.00,23.07,27.17,30.04,4.72,24.27,1010.88,2034.23,2739.26,2836.47,3054.03,350.04,345.47,32.08,0000 0000 0000 0000 000000
2015-05-20 01:46:42,0.04,1.79,0.00,23.03,27.17,30.07,4.75,24.39,1011.07,2034.20,2738.50,2836.00,3053.64,349.42,345.30,32.11,0000 0000 0000 0000 000000
2015-05-20 01:51:43,0.06,1.80,0.00,23.00,27.17,30.07,4.74,24.24,1011.14,2034.28,2737.87,2835.71,3053.03,349.58,345.36,32.14,0000 0000 0000 0000 000000
2015-05-20 01:56:44,0.08,1.80,0.00,23.05,27.17,30.00,4.75,24.36,1011.21,2034.33,2737.04,2835.03,3052.50,350.46,346.23,32.17,0000 0000 0000 0000 000000
2015-05-20 02:01:45,0.11,1.80,0.00,23.22,27.17,29.98,4.71,24.39,1011.22,2034.46,2736.47,2834.87,3052.01,349.83,345.42,32.20,0000 0000 0000 0000 000000
2015-05-20 02:06:47,0.03,1.80,0.00,23.35,27.17,29.95,4.76,24.40,1011.24,2034.54,2736.01,2834.16,3051.96,349.76,344.99,32.22,0000 0000 0000 0000 000000
2015-05-20 02:11:48,0.07,1.80,0.00,23.21,27.19,30.01,4.80,24.37,1011.24,2034.58,2735.67,2834.00,3051.33,350.26,346.07,32.25,0000 0000 0000 0000 000000
2015-05-20 02:16:49,-0.02,1.81,0.00,23.18,27.20,30.00,4.73,24.34,1011.24,2034.38,2735.03,2833.85,3051.01,349.97,345.56,32.28,0000 0000 0000 0000 000000
2015-05-20 02:21:51,0.04,1.81,0.00,23.17,27.20,30.03,4.76,24.31,1011.24,2034.21,2734.45,2833.18,3050.91,349.82,345.54,32.31,0000 0000 0000 0000 000000
2015-05-20 02:26:52,0.02,1.81,0.00,23.14,27.20,30.05,4.71,24.22,1011.25,2034.12,2734.01,2833.00,3050.19,349.59,345.36,32.34,0000 0000 0000 0000 000000
2015-05-20 02:31:53,-0.00,1.81,0.00,23.12,27.20,30.05,4.70,24.28,1011.25,2034.11,2733.99,2833.00,3050.01,349.52,345.47,32.37,0000 0000 0000 0000 000000
2015-05-20 02:36:55,0.09,1.81,0.00,23.12,27.20,30.06,4.71,24.27,1011.26,2034.10,2733.36,2832.42,3049.74,349.71,345.43,32.40,0000 0000 0000 0000 000000
2015-05-20 02:41:56,0.02,1.81,0.00,23.26,27.20,30.02,4.74,24.30,1011.27,2034.09,2732.98,2832.00,3049.13,349.97,345.36,32.43,0000 0000 0000 0000 000000
2015-05-20 02:46:57,0.00,1.81,0.00,23.42,27.20,29.98,4.78,24.41,1011.27,2034.06,2732.75,2832.00,3049.02,349.91,345.33,32.46,0000 0000 0000 0000 000000
2015-05-20 02:51:58,0.02,1.81,0.00,23.31,27.22,30.03,4.75,24.35,1011.26,2034.05,2732.06,2831.97,3049.00,349.55,345.09,32.49,0000 0000 0000 0000 000000
2015-05-20 02:57:00,0.02,1.81,0.00,23.27,27.22,30.04,4.76,24.43,1011.27,2034.02,2732.00,2831.64,3048.95,350.06,345.61,32.52,0000 0000 0000 0000 000000
2015-05-20 03:02:01,0.03,1.81,0.00,23.29,27.22,30.03,4.73,24.36,1011.27,2034.05,2731.96,2831.23,3048.88,349.92,345.55,32.55,0000 0000 0000 0000 000000
2015-05-20 03:07:02,0.05,1.81,0.00,23.26,27.22,30.06,4.79,24.28,1011.27,2034.05,2731.40,2831.04,3048.34,350.62,346.28,32.58,0000 0000 0000 0000 000000
2015-05-20 03:12:04,0.01,1.82,0.00,23.23,27.22,30.04,4.73,24.24,1011.29,2034.04,2731.02,2831.02,3048.03,349.42,345.02,32.61,0000 0000 0000 0000 000000
2015-05-20 03:17:05,0.01,1.82,0.00,23.19,27.22,30.07,4.72,24.23,1011.30,2034.05,2731.00,2831.00,3048.00,350.10,345.63,32.63,0000 0000 0000 0000 000000
2015-05-20 03:22:06,0.02,1.82,0.00,23.18,27.22,30.06,4.75,24.27,1011.35,2034.05,2730.70,2830.98,3048.00,350.72,346.62,32.66,0000 0000 0000 0000 000000
2015-05-20 03:27:07,0.04,1.82,0.00,23.17,27.22,30.12,4.79,24.30,1011.44,2034.07,2730.05,2830.88,3047.96,350.47,346.35,32.69,0000 0000 0000 0000 000000
2015-05-20 03:32:09,0.04,1.82,0.00,23.16,27.22,30.07,4.75,24.38,1011.50,2034.07,2730.00,2830.35,3047.63,350.33,346.08,32.72,0000 0000 0000 0000 000000
2015-05-20 03:37:10,0.02,1.82,0.00,23.15,27.22,30.09,4.73,24.27,1011.53,2034.08,2729.96,2830.04,3047.17,349.55,345.29,32.75,0000 0000 0000 0000 000000
2015-05-20 03:42:11,0.01,1.82,0.00,23.15,27.22,30.07,4.74,24.35,1011.53,2034.06,2729.64,2830.01,3047.02,349.50,345.13,32.78,0000 0000 0000 0000 000000
2015-05-20 03:47:13,0.01,1.82,0.00,23.16,27.22,30.04,4.77,24.32,1011.61,2034.09,2729.09,2830.00,3047.01,349.70,345.35,32.81,0000 0000 0000 0000 000000
2015-05-20 03:52:14,0.06,1.82,0.00,23.18,27.22,30.08,4.68,24.32,1011.60,2034.21,2728.79,2829.79,3046.80,349.22,345.00,32.84,0000 0000 0000 0000 000000
2015-05-20 03:57:15,0.06,1.82,0.00,23.19,27.22,30.08,4.81,24.48,1011.58,2034.13,2728.03,2829.04,3046.05,350.00,345.74,32.87,0000 0000 0000 0000 000000
2015-05-20 04:02:17,0.03,1.82,0.00,23.18,27.22,30.08,4.82,24.32,1011.62,2034.25,2727.99,2829.01,3046.00,350.36,346.20,32.90,0000 0000 0000 0000 000000
2015-05-20 04:07:17,0.01,1.83,0.00,23.19,27.22,30.07,4.67,24.31,1011.71,2034.44,2727.92,2829.00,3046.00,349.86,345.74,32.93,0000 0000 0000 0000 000000
2015-05-20 04:12:19,0.04,1.83,0.00,23.19,27.22,30.07,4.77,24.33,1011.72,2034.45,2727.63,2828.99,3045.98,349.79,345.67,32.96,0000 0000 0000 0000 000000
2015-05-20 04:17:20,-0.00,1.83,0.00,23.20,27.22,30.06,4.71,24.32,1011.73,2034.48,2727.21,2828.98,3045.94,349.72,345.44,32.99,0000 0000 0000 0000 000000
2015-05-20 04:22:21,0.05,1.83,0.00,23.22,27.22,30.05,4.79,24.41,1011.72,2034.57,2727.00,2828.89,3045.56,349.98,345.76,33.02,0000 0000 0000 0000 000000
2015-05-20 04:27:22,0.05,1.83,0.00,23.23,27.22,30.06,4.82,24.29,1011.73,2034.60,2726.96,2828.40,3045.08,350.30,346.02,33.05,0000 0000 0000 0000 000000
2015-05-20 04:32:24,0.04,1.83,0.00,23.24,27.22,30.05,4.71,24.34,1011.73,2034.66,2726.73,2828.06,3045.01,349.75,345.48,33.07,0000 0000 0000 0000 000000
2015-05-20 04:37:25,0.03,1.83,0.00,23.25,27.22,30.05,4.84,24.36,1011.73,2034.73,2726.15,2828.02,3045.00,350.93,346.48,33.10,0000 0000 0000 0000 000000
2015-05-20 04:42:27,-0.02,1.83,0.00,23.26,27.22,30.04,4.78,24.34,1011.73,2034.71,2726.01,2828.00,3044.99,350.27,345.78,33.13,0000 0000 0000 0000 000000
2015-05-20 04:47:28,0.04,1.83,0.00,23.27,27.22,30.04,4.72,24.27,1011.73,2034.91,2726.00,2828.00,3044.99,350.26,345.87,33.16,0000 0000 0000 0000 000000
2015-05-20 04:52:29,-0.00,1.83,0.00,23.29,27.22,30.05,4.73,24.16,1011.73,2034.93,2725.98,2828.00,3044.98,349.91,345.66,33.19,0000 0000 0000 0000 000000
2015-05-20 04:57:30,0.02,1.83,0.00,23.29,27.22,30.06,4.66,24.23,1011.73,2034.84,2725.62,2827.91,3044.53,349.45,345.30,33.22,0000 0000 0000 0000 000000
2015-05-20 05:02:32,0.04,1.83,0.00,23.31,27.22,30.06,4.81,24.29,1011.73,2034.79,2725.10,2827.72,3044.07,349.99,345.64,33.25,0000 0000 0000 0000 000000
2015-05-20 05:07:33,0.04,1.83,0.00,23.32,27.22,30.05,4.86,24.33,1011.73,2034.78,2725.00,2827.17,3044.00,349.74,345.43,33.28,0000 0000 0000 0000 000000
2015-05-20 05:12:34,0.01,1.84,0.00,23.34,27.22,30.05,4.75,24.19,1011.73,2034.81,2724.96,2827.03,3044.00,350.31,345.78,33.31,0000 0000 0000 0000 000000
2015-05-20 05:17:36,0.00,1.84,0.00,23.35,27.22,30.04,4.79,24.37,1011.73,2034.84,2724.86,2827.00,3043.99,349.89,345.72,33.34,0000 0000 0000 0000 000000
2015-05-20 05:22:37,0.03,1.84,0.00,23.37,27.22,30.06,4.71,24.32,1011.73,2034.88,2724.28,2827.00,3043.98,350.30,345.87,33.37,0000 0000 0000 0000 000000
2015-05-20 05:27:38,0.01,1.84,0.00,23.39,27.23,30.00,4.69,24.27,1011.74,2034.91,2724.03,2827.00,3043.71,349.35,344.71,33.40,0000 0000 0000 0000 000000
2015-05-20 05:32:39,0.02,1.84,0.00,23.40,27.24,30.01,4.77,24.31,1011.75,2034.87,2724.00,2826.97,3043.19,349.73,345.30,33.43,0000 0000 0000 0000 000000
2015-05-20 05:37:41,0.01,1.84,0.00,23.41,27.24,30.03,4.75,24.23,1011.77,2034.85,2723.94,2826.71,3043.02,349.69,345.23,33.45,0000 0000 0000 0000 000000
2015-05-20 05:42:42,0.04,1.84,0.00,23.42,27.25,30.03,4.77,24.23,1011.83,2034.81,2723.46,2826.16,3043.00,349.90,345.44,33.48,0000 0000 0000 0000 000000
2015-05-20 05:47:43,0.02,1.84,0.00,23.43,27.25,30.01,4.68,24.25,1012.05,2034.81,2723.05,2826.02,3043.00,349.73,345.53,33.51,0000 0000 0000 0000 000000
2015-05-20 05:52:45,0.00,1.84,0.00,23.45,27.25,30.01,4.74,24.28,1012.12,2034.86,2723.00,2826.00,3042.93,350.25,345.75,33.54,0000 0000 0000 0000 000000
2015-05-20 05:57:46,-0.00,1.84,0.00,23.45,27.25,30.02,4.82,24.32,1012.19,2034.71,2722.83,2825.98,3042.31,350.22,345.79,33.57,0000 0000 0000 0000 000000
2015-05-20 06:02:47,0.05,1.84,0.00,23.47,27.25,30.02,4.77,24.18,1012.22,2034.67,2722.38,2825.98,3042.04,350.31,346.03,33.60,0000 0000 0000 0000 000000
2015-05-20 06:07:49,0.02,1.84,0.00,23.47,27.25,30.02,4.76,24.33,1012.22,2034.75,2722.04,2825.85,3042.00,349.82,345.46,33.63,0000 0000 0000 0000 000000
2015-05-20 06:12:50,0.05,1.84,0.00,23.48,27.25,30.01,4.75,24.23,1012.22,2034.82,2722.00,2825.38,3042.00,350.27,345.62,33.66,0000 0000 0000 0000 000000
2015-05-20 06:17:52,0.02,1.84,0.00,23.50,27.25,29.99,4.70,24.24,1012.22,2034.89,2721.98,2825.11,3042.00,349.84,345.53,33.69,0000 0000 0000 0000 000000
2015-05-20 06:22:53,0.00,1.84,0.00,23.51,27.26,30.01,4.80,24.27,1012.23,2034.93,2721.94,2825.05,3041.97,350.67,345.92,33.72,0000 0000 0000 0000 000000
2015-05-20 06:27:54,0.02,1.84,0.00,23.52,27.27,30.01,4.68,24.23,1012.22,2034.89,2721.65,2825.00,3041.71,349.63,345.21,33.75,0000 0000 0000 0000 000000
2015-05-20 06:32:56,0.01,1.85,0.00,23.54,27.27,29.99,4.73,24.22,1012.22,2034.76,2721.05,2825.00,3041.13,349.87,345.52,33.78,0000 0000 0000 0000 000000
2015-05-20 06:37:57,-0.01,1.84,0.00,23.55,27.27,30.00,4.69,24.30,1012.23,2034.68,2721.00,2824.98,3041.02,350.18,345.63,33.81,0000 0000 0000 0000 000000
2015-05-20 06:42:58,0.03,1.85,0.00,23.55,27.27,29.99,4.65,24.20,1012.25,2034.78,2720.99,2824.94,3041.00,349.49,345.06,33.83,0000 0000 0000 0000 000000
2015-05-20 06:47:59,-0.00,1.85,0.00,23.57,27.27,30.00,4.73,24.22,1012.26,2034.74,2720.91,2824.67,3041.00,350.04,345.74,33.86,0000 0000 0000 0000 000000
2015-05-20 06:53:00,0.05,1.85,0.00,23.59,27.27,30.00,4.72,24.13,1012.35,2034.85,2720.54,2824.33,3040.98,349.91,345.40,33.89,0000 0000 0000 0000 000000
2015-05-20 06:58:01,-0.02,1.85,0.00,23.59,27.27,30.00,4.81,24.29,1012.59,2034.71,2720.12,2824.09,3040.87,350.52,346.08,33.92,0000 0000 0000 0000 000000
2015-05-20 07:03:02,0.03,1.85,0.00,23.58,27.27,30.01,4.61,24.20,1012.70,2034.71,2720.02,2824.01,3040.52,349.49,345.31,33.95,0000 0000 0000 0000 000000
2015-05-20 07:08:04,0.03,1.85,0.00,23.60,27.27,29.99,4.76,24.23,1012.71,2034.81,2720.00,2824.00,3040.16,350.48,346.07,33.98,0000 0000 0000 0000 000000
2015-05-20 07:13:05,-0.02,1.85,0.00,23.60,27.28,29.98,4.68,24.22,1012.71,2034.69,2719.94,2824.00,3040.01,349.63,345.03,34.01,0000 0000 0000 0000 000000
2015-05-20 07:18:06,0.01,1.85,0.00,23.60,27.29,29.99,4.71,24.24,1012.72,2034.60,2719.59,2823.98,3040.00,349.93,345.71,34.04,0000 0000 0000 0000 000000
2015-05-20 07:23:08,-0.03,1.85,0.00,23.62,27.30,29.99,4.72,24.22,1012.71,2034.42,2719.08,2823.92,3040.00,349.62,345.43,34.07,0000 0000 0000 0000 000000
2015-05-20 07:28:09,0.02,1.85,0.00,23.62,27.30,29.98,4.83,24.33,1012.72,2034.33,2719.00,2823.63,3039.98,350.11,345.68,34.10,0000 0000 0000 0000 000000
2015-05-20 07:33:11,0.03,1.85,0.00,23.61,27.30,30.00,4.74,24.31,1012.72,2034.31,2718.99,2823.20,3039.96,349.70,345.31,34.13,0000 0000 0000 0000 000000
2015-05-20 07:38:12,0.02,1.85,0.00,23.62,27.30,30.02,4.78,24.27,1012.74,2034.37,2718.96,2823.07,3039.84,350.08,345.77,34.16,0000 0000 0000 0000 000000
2015-05-20 07:43:13,0.02,1.85,0.00,23.63,27.30,29.97,4.74,24.26,1012.82,2034.50,2718.96,2823.04,3039.67,350.11,345.82,34.19,0000 0000 0000 0000 000000
2015-05-20 07:48:15,0.01,1.85,0.00,23.64,27.30,29.98,4.74,24.27,1012.89,2034.44,2718.82,2823.01,3039.24,349.49,345.03,34.22,0000 0000 0000 0000 000000
2015-05-20 07:53:16,0.02,1.85,0.00,23.65,27.30,29.95,4.72,24.23,1012.94,2034.44,2718.34,2823.00,3039.09,350.04,345.79,34.24,0000 0000 0000 0000 000000
2015-05-20 07:58:18,-0.01,1.85,0.00,23.64,27.30,29.97,4.76,24.26,1013.11,2034.44,2718.04,2823.00,3039.02,350.47,346.20,34.27,0000 0000 0000 0000 000000
2015-05-20 08:03:19,0.01,1.85,0.00,23.63,27.30,29.98,4.71,24.25,1013.18,2034.40,2718.05,2823.00,3039.00,349.55,345.19,34.30,0000 0000 0000 0000 000000
2015-05-20 08:08:21,-0.02,1.85,0.00,23.64,27.30,29.97,4.77,24.23,1013.19,2034.31,2718.03,2823.00,3039.01,350.43,346.35,34.33,0000 0000 0000 0000 000000
2015-05-20 08:13:22,-0.00,1.85,0.00,23.65,27.30,29.96,4.81,24.38,1013.20,2034.29,2718.01,2823.00,3039.00,350.38,345.96,34.36,0000 0000 0000 0000 000000
2015-05-20 08:18:23,0.00,1.85,0.00,23.65,27.31,29.98,4.79,24.28,1013.20,2034.28,2718.00,2822.99,3038.99,350.09,345.78,34.39,0000 0000 0000 0000 000000
2015-05-20 08:23:24,0.01,1.85,0.00,23.66,27.32,29.98,4.79,24.19,1013.21,2034.30,2718.01,2822.99,3038.99,350.35,346.08,34.42,0000 0000 0000 0000 000000
2015-05-20 08:28:26,0.02,1.85,0.00,23.66,27.32,29.98,4.76,24.30,1013.23,2034.46,2718.00,2822.99,3039.00,350.11,345.73,34.45,0000 0000 0000 0000 000000
2015-05-20 08:33:27,-0.01,1.85,0.00,23.66,27.32,29.98,4.75,24.22,1013.22,2034.49,2718.00,2822.99,3038.99,349.92,345.61,34.48,0000 0000 0000 0000 000000
2015-05-20 08:38:28,-0.01,1.85,0.00,23.65,27.32,30.00,4.75,24.27,1013.23,2034.42,2718.00,2822.98,3038.99,350.16,345.99,34.51,0000 0000 0000 0000 000000
2015-05-20 08:43:30,0.04,1.85,0.00,23.64,27.32,30.02,4.73,24.22,1013.24,2034.59,2718.00,2822.99,3038.99,349.69,345.36,34.54,0000 0000 0000 0000 000000
2015-05-20 08:48:31,-0.02,1.85,0.00,23.64,27.32,30.00,4.81,24.30,1013.24,2034.55,2718.00,2822.98,3038.99,349.63,345.44,34.57,0000 0000 0000 0000 000000
2015-05-20 08:53:32,-0.02,1.85,0.00,23.65,27.32,30.02,4.73,24.21,1013.25,2034.40,2718.00,2822.97,3038.98,350.31,346.10,34.60,0000 0000 0000 0000 000000
2015-05-20 08:58:34,-0.01,1.85,0.00,23.65,27.32,30.00,4.71,24.37,1013.29,2034.21,2717.99,2822.93,3038.93,350.20,345.91,34.63,0000 0000 0000 0000 000000
2015-05-20 09:03:35,0.01,1.85,0.00,23.65,27.32,29.98,4.71,24.30,1013.36,2034.33,2717.99,2822.97,3038.97,350.28,346.00,34.65,0000 0000 0000 0000 000000
2015-05-20 09:08:36,-0.02,1.85,0.00,23.64,27.32,30.02,4.76,24.27,1013.48,2034.29,2717.99,2822.97,3038.98,350.30,345.90,34.68,0000 0000 0000 0000 000000
2015-05-20 09:13:38,0.02,1.85,0.00,23.63,27.32,29.99,4.68,24.27,1013.61,2034.25,2717.99,2822.94,3038.95,349.84,345.46,34.71,0000 0000 0000 0000 000000
2015-05-20 09:18:39,-0.01,1.85,0.00,23.62,27.32,30.03,4.69,24.32,1013.68,2034.33,2717.99,2822.96,3038.95,349.19,345.13,34.74,0000 0000 0000 0000 000000
2015-05-20 09:23:40,-0.02,1.85,0.00,23.62,27.32,30.04,4.73,24.31,1013.69,2034.17,2717.99,2822.93,3038.91,350.44,346.30,34.77,0000 0000 0000 0000 000000
2015-05-20 09:28:41,0.00,1.85,0.00,23.63,27.32,30.02,4.69,24.36,1013.69,2034.21,2717.99,2822.98,3038.91,349.64,345.57,34.80,0000 0000 0000 0000 000000
2015-05-20 09:33:43,0.00,1.85,0.00,23.62,27.32,30.04,4.76,24.29,1013.69,2034.31,2717.99,2822.96,3038.90,350.33,346.12,34.83,0000 0000 0000 0000 000000
2015-05-20 09:38:44,0.01,1.85,0.00,23.61,27.32,30.04,4.70,24.27,1013.69,2034.20,2717.99,2822.93,3038.87,350.05,346.10,34.86,0000 0000 0000 0000 000000
2015-05-20 09:43:45,0.02,1.85,0.00,23.60,27.32,30.07,4.74,24.25,1013.70,2034.25,2717.99,2822.94,3038.84,350.03,346.06,34.89,0000 0000 0000 0000 000000
2015-05-20 09:48:46,-0.01,1.85,0.00,23.58,27.32,30.07,4.79,24.26,1013.71,2034.13,2717.96,2822.85,3038.60,350.25,346.40,34.92,0000 0000 0000 0000 000000
2015-05-20 09:53:47,0.03,1.85,0.00,23.57,27.32,30.08,4.74,24.21,1013.71,2034.36,2717.97,2822.93,3038.76,349.87,345.97,34.95,0000 0000 0000 0000 000000
2015-05-20 09:58:49,-0.00,1.48,0.00,23.57,27.32,30.09,4.32,22.23,1013.71,2034.62,2875.26,2922.65,3152.55,312.53,309.87,0.00,0000 0000 0000 0000 000002
2015-05-20 10:03:50,0.04,0.00,0.00,23.56,27.33,30.09,4.85,26.36,1013.71,2036.00,3501.62,3321.65,3608.71,350.13,346.29,0.01,0000 0000 0000 0000 000000
2015-05-20 10:08:51,0.04,0.00,0.00,23.55,27.33,30.09,4.73,26.37,1013.73,2036.00,3500.19,3321.19,3608.05,349.78,345.78,0.04,0000 0000 0000 0000 000000
2015-05-20 10:13:52,0.03,0.00,0.00,23.55,27.33,30.11,4.79,26.33,1013.76,2036.00,3499.98,3321.05,3607.96,350.09,346.19,0.07,0000 0000 0000 0000 000000
2015-05-20 10:18:54,0.02,0.00,0.00,23.53,27.32,30.13,4.73,26.45,1013.80,2036.00,3499.51,3321.02,3607.52,349.61,345.72,0.10,0000 0000 0000 0000 000000
2015-05-20 10:23:55,0.01,0.00,0.00,23.52,27.32,30.14,4.71,26.55,1013.92,2036.00,3499.04,3321.00,3607.06,349.40,345.76,0.13,0000 0000 0000 0000 000000
2015-05-20 10:28:56,0.00,0.00,0.00,23.50,27.32,30.13,4.79,26.56,1014.12,2036.00,3499.00,3321.00,3607.00,350.10,346.11,0.16,0000 0000 0000 0000 000000
2015-05-20 10:33:57,0.00,0.00,0.00,23.50,27.32,30.14,4.86,26.52,1014.16,2036.00,3498.97,3321.00,3606.98,350.30,346.54,0.19,0000 0000 0000 0000 000000
2015-05-20 10:38:58,0.02,0.00,0.00,23.49,27.32,30.13,4.67,26.54,1014.17,2036.00,3498.73,3320.99,3606.85,349.73,346.09,0.21,0000 0000 0000 0000 000000
2015-05-20 10:44:00,0.02,0.00,0.00,23.47,27.32,30.13,4.70,26.44,1014.17,2036.00,3498.22,3320.98,3606.50,349.71,346.02,0.24,0000 0000 0000 0000 000000
2015-05-20 10:49:01,0.01,0.00,0.00,23.45,27.32,30.14,4.77,26.52,1014.17,2036.00,3498.04,3320.98,3606.14,350.05,346.34,0.27,0000 0000 0000 0000 000000
2015-05-20 10:54:02,-0.00,0.00,0.00,23.43,27.32,30.15,4.82,26.50,1014.17,2036.00,3498.02,3320.97,3606.08,350.12,346.47,0.30,0000 0000 0000 0000 000000
2015-05-20 10:59:03,0.00,0.00,0.00,23.40,27.32,30.16,4.77,26.55,1014.17,2036.00,3498.00,3320.86,3606.00,349.60,345.88,0.33,0000 0000 0000 0000 000000
2015-05-20 11:04:05,0.00,0.00,0.00,23.40,27.32,30.14,4.75,26.54,1014.17,2036.00,3497.99,3320.89,3606.00,349.99,346.38,0.36,0000 0000 0000 0000 000000
2015-05-20 11:09:06,0.00,0.00,0.00,23.39,27.31,30.15,4.70,26.48,1014.18,2036.01,3497.98,3320.90,3606.00,349.25,345.61,0.39,0000 0000 0000 0000 000000
2015-05-20 11:14:07,0.00,0.00,0.00,23.36,27.30,30.15,4.92,26.56,1014.18,2036.00,3497.98,3320.95,3606.00,350.81,347.16,0.42,0000 0000 0000 0000 000000
2015-05-20 11:19:08,0.00,0.00,0.00,23.35,27.30,30.16,4.75,26.50,1014.19,2036.01,3497.98,3320.94,3605.99,350.13,346.59,0.45,0000 0000 0000 0000 000000
2015-05-20 11:24:09,0.00,0.00,0.00,23.34,27.30,30.15,4.74,26.45,1014.19,2036.01,3497.94,3320.92,3605.97,350.12,346.56,0.48,0000 0000 0000 0000 000000
2015-05-20 11:29:10,0.02,0.00,0.00,23.31,27.30,30.15,4.75,26.36,1014.20,2036.01,3497.61,3320.73,3605.93,349.92,346.26,0.51,0000 0000 0000 0000 000000
2015-05-20 11:34:11,-0.00,0.00,0.00,23.28,27.30,30.17,4.81,26.35,1014.25,2036.01,3497.42,3320.79,3605.94,350.36,346.85,0.54,0000 0000 0000 0000 000000
2015-05-20 11:39:12,0.01,0.00,0.00,23.27,27.30,30.17,4.83,26.43,1014.33,2036.00,3497.19,3320.83,3605.93,350.40,346.97,0.57,0000 0000 0000 0000 000000
2015-05-20 11:44:13,0.00,0.00,0.00,23.27,27.29,30.15,4.78,26.46,1014.37,2036.01,3497.12,3320.84,3605.87,349.97,346.49,0.60,0000 0000 0000 0000 000000
2015-05-20 11:49:15,0.01,0.00,0.00,23.22,27.27,30.15,4.81,26.38,1014.31,2036.03,3497.04,3320.83,3605.70,350.44,346.90,0.62,0000 0000 0000 0000 000000
2015-05-20 11:54:16,0.02,0.00,0.00,23.19,27.27,30.15,4.70,26.43,1014.32,2036.01,3497.02,3320.51,3605.28,349.68,346.46,0.65,0000 0000 0000 0000 000000
2015-05-20 11:59:17,0.01,0.00,0.00,23.19,27.27,30.15,4.78,26.61,1014.36,2036.01,3497.00,3320.14,3605.08,349.70,346.76,0.68,0000 0000 0000 0000 000000
2015-05-20 12:04:18,-0.03,0.00,0.00,23.17,27.27,30.16,4.83,26.48,1014.40,2036.03,3497.00,3320.62,3605.20,350.73,347.39,0.71,0000 0000 0000 0000 000000
2015-05-20 12:09:19,0.01,0.00,0.00,23.16,27.27,30.14,4.72,26.41,1014.36,2036.06,3497.00,3320.64,3605.10,349.92,346.74,0.74,0000 0000 0000 0000 000000
2015-05-20 12:14:21,0.01,0.00,0.00,23.14,27.26,30.13,4.78,26.41,1014.51,2036.10,3497.00,3320.54,3605.06,350.36,347.04,0.77,0000 0000 0000 0000 000000
2015-05-20 12:19:22,-0.00,0.00,0.00,23.10,27.25,30.11,4.77,26.41,1014.58,2036.09,3496.99,3320.37,3605.02,349.86,346.76,0.80,0000 0000 0000 0000 000000
2015-05-20 12:24:23,0.01,0.00,0.00,23.07,27.25,30.07,4.82,26.38,1014.48,2036.08,3496.98,3320.25,3605.01,350.43,347.31,0.83,0000 0000 0000 0000 000000
2015-05-20 12:29:24,0.01,0.00,0.00,23.07,27.25,30.12,4.76,26.39,1014.54,2036.12,3496.96,3320.26,3605.01,349.64,346.56,0.86,0000 0000 0000 0000 000000
2015-05-20 12:34:25,-0.00,0.00,0.00,23.07,27.25,30.14,4.77,26.44,1014.56,2036.13,3496.94,3320.20,3605.00,350.29,347.08,0.89,0000 0000 0000 0000 000000
2015-05-20 12:39:27,-0.00,0.00,0.00,23.05,27.24,30.11,4.70,26.35,1014.59,2036.09,3496.85,3320.13,3605.00,349.52,346.57,0.92,0000 0000 0000 0000 000000
2015-05-20 12:44:28,0.00,0.00,0.00,23.03,27.23,30.09,4.80,26.43,1014.58,2036.08,3496.73,3320.14,3605.00,350.26,347.31,0.95,0000 0000 0000 0000 000000
2015-05-20 12:49:29,-0.01,0.00,0.00,23.02,27.22,30.07,4.80,26.33,1014.54,2036.10,3496.83,3320.22,3605.00,350.45,347.09,0.98,0000 0000 0000 0000 000000
2015-05-20 12:54:31,0.03,0.00,0.00,22.99,27.22,30.03,4.77,26.48,1014.59,2036.41,3496.93,3320.61,3605.00,350.01,346.88,1.01,0000 0000 0000 0000 000000
2015-05-20 12:59:32,0.01,0.00,0.00,22.99,27.22,30.07,4.79,26.52,1014.59,2036.28,3496.44,3320.23,3605.00,349.92,347.11,1.03,0000 0000 0000 0000 000000